Flag for Germany Weather past 2 weeks in Filderstadt, Baden-Württemberg, Germany

Now
55 °F

Overcast.


Feels Like: 55 °F
Forecast: 46 / 69 °F
Wind: 1 mph from Southwest

Location: Stuttgart-Echterdingen

Current Time: Jul 29, 2015 at 2:40:26 AM

Latest Report: Jul 29, 2015 at 2:00 AM


Visibility: 25 mi

Pressure: 29.93 "Hg

Humidity: 85%

Dew point: 51 °F

Location of FilderstadtLocation

Historic Weather in Filderstadt — Graph

°F

Filderstadt temperature yesterday

Maximum temperature yesterday: 71 °F (at 3:00 PM)
Minimum temperature yesterday: 61 °F (at 11:00 PM)
Average temperature yesterday: 66 °F

Past Weeks' High & Low Weather Summary

 TemperatureHumidityPressure
High94 °F (Jul 22, 3:00 PM)92% (Jul 23, 8:00 AM)30.14 "Hg (Jul 23, 8:00 AM)
Low50 °F (Jul 26, 7:00 AM)26% (Jul 22, 3:00 PM)29.65 "Hg (Jul 24, 8:00 PM)
Average72 °F58%29.93 "Hg
* Reported Jul 14 1:00 AM — Jul 29 1:00 AM, Filderstadt, Weather by CustomWeather, © 2015

Note: Actual official high and low records may vary slightly from our data, if they occured in-between our weather recording intervals... More about our weather records

Advertising

Filderstadt weather history for previous 24 hours

 ConditionsComfort  
Time TempWeatherWind HumidityBarometerVisibility
1:00 AM
Wed, Jul 29
57 °FLight rain. Overcast.1 mph73%29.93 "Hg25 mi
11:00 PM
Tue, Jul 28
61 °FLight rain. Overcast.6 mph61%29.89 "Hg22 mi
10:00 PM63 °FLight rain. Overcast.7 mph58%29.86 "Hg22 mi
9:00 PM66 °FOvercast.5 mph47%29.83 "Hg31 mi
8:00 PM67 °FOvercast.7 mph40%29.82 "Hg40 mi
7:00 PM69 °FOvercast.8 mph40%29.79 "Hg43 mi
6:00 PM70 °FOvercast.8 mph39%29.78 "Hg43 mi
5:00 PM70 °FOvercast.7 mph39%29.78 "Hg43 mi
4:00 PM70 °FOvercast.9 mph41%29.79 "Hg43 mi
3:00 PM71 °FPartly sunny.9 mph41%29.79 "Hg43 mi
2:00 PM69 °FPartly sunny.8 mph44%29.81 "Hg43 mi
1:00 PM69 °FOvercast.8 mph44%29.81 "Hg43 mi
12:00 PM67 °FOvercast.8 mph48%29.82 "Hg43 mi
10:00 AM66 °FOvercast.7 mph52%29.82 "Hg43 mi
9:00 AM64 °FOvercast.7 mph55%29.82 "Hg43 mi
8:00 AM64 °FOvercast.5 mph56%29.81 "Hg43 mi
7:00 AM63 °FOvercast.3 mph63%29.80 "Hg43 mi
6:00 AM62 °FOvercast.3 mph64%29.79 "Hg37 mi
4:00 AM63 °FOvercast.3 mph59%29.78 "Hg37 mi
3:00 AM64 °FOvercast.3 mph57%29.78 "Hg37 mi
2:00 AM63 °FPassing clouds.3 mph59%29.79 "Hg37 mi
Weather by CustomWeather, © 2015

See weather overviewHow to use our weather pages